Date String (YYYY-MM-DD hh:mm:ss) UTC,Instrument flags,Ambient pressure (hPa),Sample flow (lpm),Bypass flow (lpm),Sample temperature (°C),Ambient temperature (°C),ASC tube jacket temperature (°C),LED temperature (°C),Box temperature (°C),Sample RH (%),Span deviation,Mass concentration (μg/m³),Mass concentration (μg/m³),Mass concentration (μg/m³)
DateTimeUTC,F1_M11,P_M11,Q1_M11,Q2_M11,T1_M11,T2_M11,T3_M11,T4_M11,T5_M11,U1_M11,ZSPAN_M11,X0_M11,X2_M11,X1_M11
2022-06-29 19:00:00,,0829.0,5.00,0.00,28.9,27.4,00.0,37.7,30.8,18.6,0000.0,0008.99,0003.97,0003.19
2022-06-29 19:01:00,,0829.2,4.99,0.00,28.9,27.6,00.0,37.7,30.9,19.1,0000.0,0009.02,0003.98,0003.19
2022-06-29 19:02:00,,0829.1,5.01,0.00,29.0,27.8,00.0,37.7,31.0,18.0,0000.0,0009.13,0004.03,0003.20
2022-06-29 19:03:00,,0828.9,4.99,0.00,29.0,27.8,00.0,37.7,31.0,18.3,0000.0,0009.21,0004.07,0003.19
2022-06-29 19:04:00,,0829.2,5.00,0.00,29.0,27.3,00.0,37.7,30.8,18.2,0000.0,0009.26,0004.02,0003.17
2022-06-29 19:05:00,,0829.1,5.00,0.00,28.9,26.9,00.0,37.6,30.7,18.0,0000.0,0009.81,0004.00,0003.16
2022-06-29 19:06:00,,0829.0,5.00,0.00,28.9,27.0,00.0,37.6,30.8,18.2,0000.0,0009.75,0004.00,0003.14
2022-06-29 19:07:00,,0828.7,4.99,0.00,28.9,27.1,00.0,37.6,30.8,18.3,0000.0,0009.67,0003.98,0003.13
2022-06-29 19:08:00,,0829.1,5.00,0.00,28.9,27.3,00.0,37.7,30.8,18.6,0000.0,0009.49,0003.95,0003.11
2022-06-29 19:09:00,,0829.0,5.00,0.00,28.9,27.5,00.0,37.7,30.9,18.2,0000.0,0009.43,0003.90,0003.06
2022-06-29 19:10:00,,0828.8,5.00,0.00,29.0,27.8,00.0,37.7,31.0,18.3,0000.0,0008.58,0003.86,0003.02
2022-06-29 19:11:00,,0829.2,5.00,0.00,29.0,28.0,00.0,37.7,31.0,18.6,0000.0,0008.56,0003.83,0002.99
2022-06-29 19:12:00,,0828.8,5.01,0.00,29.0,27.7,00.0,37.7,31.0,18.6,0000.0,0008.73,0003.80,0002.98
2022-06-29 19:13:00,,0828.7,4.99,0.00,29.0,27.0,00.0,37.6,30.8,18.4,0000.0,0009.05,0003.75,0002.96
2022-06-29 19:14:00,,0828.9,5.00,0.00,28.9,26.9,00.0,37.6,30.7,18.5,0000.0,0009.51,0003.72,0002.94
2022-06-29 19:15:00,,0828.7,5.00,0.00,28.9,27.0,00.0,37.6,30.8,18.2,0000.0,0009.74,0003.73,0002.93
2022-06-29 19:16:00,,0828.7,5.00,0.00,28.9,27.2,00.0,37.6,30.8,18.1,0000.0,0009.17,0003.72,0002.92
2022-06-29 19:17:00,,0828.8,4.99,0.00,28.9,27.4,00.0,37.7,30.9,18.3,0000.0,0009.23,0003.73,0002.91
2022-06-29 19:18:00,,0828.7,5.00,0.00,28.9,27.6,00.0,37.7,30.9,18.2,0000.0,0009.48,0003.74,0002.91
2022-06-29 19:19:00,,0829.0,5.00,0.00,29.0,27.8,00.0,37.7,31.0,18.1,0000.0,0009.77,0003.73,0002.90
2022-06-29 19:20:00,,0829.0,4.99,0.00,29.0,27.9,00.0,37.7,31.0,18.1,0000.0,0009.99,0003.77,0002.91
2022-06-29 19:21:00,,0829.2,4.99,0.00,29.0,27.3,00.0,37.7,30.8,18.1,0000.0,0009.98,0003.74,0002.91
2022-06-29 19:22:00,,0829.0,5.00,0.00,28.9,26.9,00.0,37.6,30.7,18.4,0000.0,0009.67,0003.69,0002.91
2022-06-29 19:23:00,,0829.0,5.02,0.00,28.9,26.9,00.0,37.6,30.7,18.4,0000.0,0009.52,0003.70,0002.90
2022-06-29 19:24:00,,0829.2,5.02,0.00,28.9,27.0,00.0,37.6,30.7,18.4,0000.0,0009.61,0003.71,0002.90
2022-06-29 19:25:00,,0828.8,5.00,0.00,28.9,27.2,00.0,37.6,30.8,18.3,0000.0,0008.95,0003.67,0002.90
2022-06-29 19:26:00,,0828.9,5.00,0.00,28.9,27.4,00.0,37.6,30.8,18.3,0000.0,0008.92,0003.64,0002.90
2022-06-29 19:27:00,,0829.0,5.01,0.00,28.9,27.6,00.0,37.7,30.9,18.3,0000.0,0008.90,0003.62,0002.91
2022-06-29 19:28:00,,0829.1,5.00,0.00,29.0,27.9,00.0,37.7,31.0,18.9,0000.0,0008.99,0003.58,0002.92
2022-06-29 19:29:00,,0829.0,5.00,0.00,29.0,27.6,00.0,37.7,30.9,18.8,0000.0,0009.04,0003.61,0002.95
2022-06-29 19:30:00,,0829.0,5.00,0.00,28.9,26.9,00.0,37.6,30.7,18.3,0000.0,0008.92,0003.64,0002.96
2022-06-29 19:31:00,,0829.0,5.00,0.00,28.9,26.8,00.0,37.6,30.7,18.3,0000.0,0008.76,0003.62,0002.98
2022-06-29 19:32:00,,0829.0,5.00,0.00,28.9,26.9,00.0,37.6,30.7,18.3,0000.0,0008.79,0003.66,0002.97
2022-06-29 19:33:00,,0829.1,4.99,0.00,28.8,27.0,00.0,37.6,30.7,18.4,0000.0,0009.00,0003.71,0002.98
2022-06-29 19:34:00,,0829.1,5.01,0.00,28.9,27.3,00.0,37.6,30.8,18.5,0000.0,0008.83,0003.69,0002.99
2022-06-29 19:35:00,,0829.1,5.00,0.00,28.9,27.5,00.0,37.6,30.9,18.7,0000.0,0008.51,0003.70,0003.00
2022-06-29 19:36:00,,0829.2,5.01,0.00,28.9,27.7,00.0,37.6,30.9,18.7,0000.0,0008.60,0003.73,0003.00
2022-06-29 19:37:00,,0829.1,4.99,0.00,29.0,27.9,00.0,37.7,31.0,18.6,0000.0,0007.97,0003.74,0003.02
2022-06-29 19:38:00,,0829.1,5.00,0.00,29.0,27.8,00.0,37.7,30.9,18.5,0000.0,0008.15,0003.76,0003.02
2022-06-29 19:39:00,,0829.1,5.00,0.00,28.9,27.1,00.0,37.6,30.7,18.2,0000.0,0008.50,0003.77,0003.03
2022-06-29 19:40:00,,0829.1,5.01,0.00,28.9,26.9,00.0,37.6,30.7,18.8,0000.0,0008.35,0003.74,0003.02
2022-06-29 19:41:00,,0829.0,5.00,0.00,28.9,26.9,00.0,37.6,30.7,18.6,0000.0,0008.24,0003.74,0003.02
2022-06-29 19:42:00,,0829.0,5.00,0.00,28.8,27.1,00.0,37.6,30.7,18.8,0000.0,0008.35,0003.73,0003.04
2022-06-29 19:43:00,,0829.1,4.99,0.00,28.8,27.3,00.0,37.6,30.8,18.9,0000.0,0008.73,0003.70,0003.05
2022-06-29 19:44:00,,0829.1,5.00,0.00,28.9,27.5,00.0,37.6,30.8,19.2,0000.0,0008.68,0003.68,0003.05
2022-06-29 19:45:00,,0829.0,5.00,0.00,28.9,27.7,00.0,37.6,30.9,19.4,0000.0,0008.63,0003.66,0003.06
2022-06-29 19:46:00,,0829.0,5.01,0.00,28.9,27.9,00.0,37.7,31.0,19.2,0000.0,0008.48,0003.63,0003.05
2022-06-29 19:47:00,,0829.0,4.99,0.00,29.0,27.8,00.0,37.7,31.0,19.0,0000.0,0008.94,0003.63,0003.08
2022-06-29 19:48:00,,0829.0,5.00,0.00,28.9,27.2,00.0,37.6,30.8,19.0,0000.0,0010.07,0003.66,0003.10
2022-06-29 19:49:00,,0829.0,4.97,0.00,28.9,26.9,00.0,37.6,30.7,19.2,0000.0,0009.94,0003.66,0003.11
2022-06-29 19:50:00,,0828.9,5.01,0.00,28.9,27.0,00.0,37.6,30.7,19.1,0000.0,0009.50,0003.67,0003.12
2022-06-29 19:51:00,,0828.9,5.01,0.00,28.9,27.1,00.0,37.6,30.8,19.2,0000.0,0009.36,0003.68,0003.13
2022-06-29 19:52:00,,0828.9,5.00,0.00,28.9,27.3,00.0,37.6,30.8,19.4,0000.0,0009.37,0003.69,0003.15
2022-06-29 19:53:00,,0829.0,5.00,0.00,28.9,27.5,00.0,37.6,30.9,19.4,0000.0,0009.46,0003.71,0003.15
2022-06-29 19:54:00,,0828.9,4.99,0.00,28.9,27.8,00.0,37.7,30.9,19.6,0000.0,0009.62,0003.78,0003.15
2022-06-29 19:55:00,,0828.9,5.00,0.00,29.0,27.9,00.0,37.7,31.0,19.1,0000.0,0009.56,0003.81,0003.17
2022-06-29 19:56:00,,0828.9,4.99,0.00,29.0,27.5,00.0,37.6,30.9,19.3,0000.0,0009.63,0003.83,0003.17
2022-06-29 19:57:00,,0828.9,5.00,0.00,28.9,26.9,00.0,37.6,30.7,19.4,0000.0,0010.17,0003.85,0003.18
2022-06-29 19:58:00,,0829.1,5.00,0.00,28.9,26.9,00.0,37.6,30.7,19.2,0000.0,0010.05,0003.85,0003.19
2022-06-29 19:59:00,,0829.2,4.99,0.00,28.9,27.0,00.0,37.6,30.7,19.2,0000.0,0009.58,0003.86,0003.19
